Location: Fort Wayne
(41.1310°N, 85.1290°W)
Time: 16:28:08
(UTC-04:00)

Daily predictions for brighter satellites

Satellite Brightness Start Highest point End
(mag) Time Altitude Azimuth Time Altitude Azimuth Time Altitude Azimuth
Envisat 3.1 20:43:33 10° SSE 20:48:31 61° ENE 20:53:33 10° N
ATLAS CENTAUR R/B 2.4 20:51:49 10° SSE 20:54:29 19° ESE 20:57:12 10° ENE
Cosmos 1340 2.9 20:53:12 10° S 20:56:51 49° E 21:00:32 10° NNE
In-Cosmos 22 Rocket 4.1 20:52:20 10° N 20:57:50 74° E 21:03:10 10° SSE
FREGAT/IRIS 4.3 21:01:24 10° SSW 21:04:08 34° W 21:06:53 10° NNW
Cosmos 2322 4.3 21:03:24 10° SW 21:08:59 62° WNW 21:14:39 10° NNE
Cosmos 1825 4.1 21:07:58 10° NE 21:09:59 14° ENE 21:11:38 11° E
Cosmos 2074 Rocket 4.5 21:03:54 10° SSW 21:10:10 69° W 21:16:28 10° N
SL-24 R/B - RUBIN 2 3.5 21:06:20 10° NNW 21:10:41 77° NE 21:15:03 10° SE
BREEZE-M DEB (TANK) 3.9 21:08:20 10° W 21:11:42 32° NNW 21:13:47 10° NE
Thor Agena Rocket 3.5 21:08:29 10° NNE 21:13:43 71° ESE 21:18:59 10° S
Cosmos 1666 Rocket 3.6 21:10:25 10° N 21:14:52 64° E 21:19:17 10° SSE
SJ-6B 3.4 21:12:33 10° S 21:16:33 60° W 21:20:30 10° NNW
Cosmos 1610 Rocket 4.5 21:10:44 10° S 21:16:51 90° E 21:23:03 10° N
SL-16 R/B 4.0 21:17:50 10° E 21:17:50 10° E 21:18:45 10° E
Cosmos 1939 Rocket 2.8 21:15:38 10° SSE 21:19:27 64° ENE 21:23:19 10° N
Resurs 1-3 3.7 21:15:50 10° SSE 21:20:09 60° ENE 21:24:29 10° N
USA 186 0.7 21:18:14 10° SSE 21:20:27 81° ENE 21:22:43 10° N
Meteor 2-3 Rocket 3.9 21:15:57 10° N 21:21:25 52° ENE 21:26:54 10° SSE
NOSS 2-1 (C) 3.5 21:18:02 10° SW 21:21:38 68° NW 21:25:35 10° NNE
NOSS 2-1 (D) 3.6 21:19:02 10° SW 21:22:36 64° NW 21:26:34 10° NNE
Meteor 2-21 Rocket 4.4 21:18:42 10° S 21:24:46 69° E 21:30:55 10° NNE
Cosmos 220 Rocket 4.4 21:22:40 10° N 21:26:51 45° ENE 21:29:56 16° SE
Sich 1 3.0 21:23:10 10° N 21:27:28 83° W 21:31:43 10° S
ARGOS 4.3 21:25:40 15° ESE 21:28:51 25° ENE 21:33:08 10° NNE
Cosmos 1151 Rocket 3.7 21:25:05 10° SSE 21:28:53 33° E 21:32:45 10° NNE
ATLAS 2AS CENTAUR R/B 3.1 21:21:21 10° NNW 21:29:14 63° NE 21:35:15 16° SE
Spot 2 Rocket 3.6 21:26:31 10° SSE 21:31:31 60° ENE 21:36:32 10° N
Lacrosse 5 4.4 21:33:45 10° NNW 21:36:04 13° N 21:38:23 10° NNE
Nadezhda 3 Rocket 4.2 21:34:01 10° N 21:40:20 80° W 21:46:40 10° S
Cosmos 1980 3.8 21:38:22 10° S 21:43:51 53° ESE 21:49:22 10° NNE
OAO 2 Rocket 4.3 21:42:07 10° WSW 21:46:47 34° SSW 21:49:18 22° SE
Cosmos 1633 Rocket 3.4 21:43:32 10° NNW 21:47:52 66° W 21:52:10 10° S
Meteor 2-10 Rocket 4.5 21:46:07 20° SE 21:49:03 32° E 21:54:07 10° NNE
Meteor 1-27 4.3 21:45:04 10° S 21:50:49 88° W 21:56:31 10° N
Cosmos 2333 Rocket 2.3 21:46:41 10° SSW 21:52:21 82° WNW 21:58:03 10° NNE
COSMOS 2428 3.9 21:52:15 10° SW 21:57:43 45° WNW 22:03:13 10° NNE
Cosmos 1455 2.8 21:53:58 10° SSW 21:57:44 57° W 22:01:33 10° N
Cosmos 2228 Rocket 2.9 21:53:28 10° S 21:57:50 77° E 22:02:15 10° N
Cosmos 1515 Rocket 3.5 21:53:36 10° S 21:58:03 78° E 22:02:32 10° N
ERS-2 4.4 21:56:43 10° SSW 21:59:40 23° W 22:02:38 10° NW
Cosmos 1408 2.5 21:56:56 10° N 22:00:34 63° E 22:01:43 39° SE
Cosmos 1844 Rocket 3.8 21:55:32 10° NW 22:00:49 41° WSW 22:06:03 10° S
Cosmos 1844 4.5 21:59:00 10° NW 22:04:29 50° WSW 22:09:34 12° S
Cosmos 1892 4.4 22:00:58 10° NNW 22:04:30 33° W 22:07:59 10° SSW
NOSS 3-3 (A) 4.4 22:00:04 10° SW 22:06:03 64° NW 22:12:40 10° NNE
NOSS 3-3 (C) 4.4 22:00:10 10° SW 22:06:08 64° NW 22:12:45 10° NNE
SL-8 R/B 3.6 22:04:16 10° SW 22:09:02 74° SSE 22:12:50 16° ENE
H-2A R/B 2.5 22:07:50 32° ESE 22:09:24 41° ENE 22:14:05 10° N
Cosmos 407 Rocket 4.3 22:05:10 10° N 22:09:50 34° ENE 22:11:08 30° E
Cosmos 2219 Rocket 3.1 22:05:35 10° SW 22:11:03 50° WNW 22:16:33 10° NNE
Cosmos 2237 Rocket 2.1 22:05:51 10° SSW 22:11:28 83° ESE 22:17:07 10° NNE
ERS-1 Rocket 3.5 22:10:13 33° ESE 22:11:35 40° ENE 22:16:15 10° N
USA 267 3.7 22:07:30 10° ENE 22:13:28 36° SE 22:19:23 10° SSW
MetOp-A 4.2 22:12:25 33° SE 22:14:44 62° ENE 22:20:02 10° N
Cosmos 1371 Rocket 4.0 22:11:58 10° S 22:17:12 65° ESE 22:22:31 10° NNE
Genesis I 3.6 22:15:21 10° NW 22:19:23 62° WSW 22:20:28 43° S
Resurs 01 Rocket 3.3 22:16:50 10° SSW 22:20:44 30° W 22:24:41 10° NW
Cosmos 2278 Rocket 2.2 22:15:17 10° NNW 22:20:59 85° WSW 22:23:35 34° SSE
SL-08 RB Rocket 3.7 22:24:45 51° ESE 22:25:28 58° ENE 22:29:52 10° N
Cosmos 405 Rocket 4.3 22:28:05 23° NE 22:28:05 23° NE 22:29:56 10° NNE
Cosmos 1727 Rocket 3.9 22:23:06 10° N 22:29:16 68° E 22:31:34 39° SSE
Cosmos 1959 Rocket 4.5 22:23:13 10° S 22:29:24 83° W 22:35:33 10° N
ATLAS CENTAUR R/B 3.0 22:29:52 10° WSW 22:33:11 31° NW 22:36:39 10° NNE
Cosmos 2056 Rocket 3.4 22:35:44 27° S 22:38:49 80° ESE 22:44:14 10° NNE
Cosmos 2098 Rocket 3.3 22:39:29 31° SSW 22:41:37 69° W 22:45:34 10° N
Cosmos 2218 Rocket 4.4 22:38:04 10° SSW 22:44:20 64° W 22:50:43 10° N
Cosmos 1825 3.4 22:42:11 10° NNW 22:45:42 37° W 22:46:31 32° WSW
Cosmos 405 3.8 22:45:30 10° NNW 22:48:07 47° NNW 22:48:07 47° NNW
Cosmos 1624 Rocket 4.2 22:52:46 23° SSW 22:56:03 68° WNW 23:01:15 10° NNE
Cosmos 1190 Rocket 3.9 22:55:01 10° NNW 23:00:20 81° WSW 23:00:47 73° SSW
SL-16 R/B 2.0 22:59:33 55° SSW 23:00:53 85° ESE 23:06:35 10° NNE
Cosmos 2344 3.5 22:58:41 42° S 23:01:03 57° ESE 23:08:58 10° NE
Terra 2.9 23:05:06 34° NE 23:05:06 34° NE 23:08:34 10° N
GEOS 3 Rocket 3.7 23:00:18 10° NNE 23:05:40 79° NW 23:10:55 10° SW
Cosmos 1140 Rocket 3.7 23:02:02 10° NNW 23:06:45 56° NE 23:06:45 56° NE
ARGOS 4.0 23:07:10 34° SW 23:08:50 43° W 23:13:56 10° NNW
CZ-4C R/B 4.2 23:13:19 16° NE 23:13:19 16° NE 23:14:31 10° NE
Cosmos 1707 Rocket 4.3 23:13:35 48° N 23:13:35 48° N 23:16:46 10° N
Cosmos 1943 Rocket 4.1 23:09:31 10° N 23:13:01 17° NE 23:13:21 17° NE
CZ-2C R/B 4.4 23:14:24 25° NE 23:14:24 25° NE 23:17:17 10° N
Cosmos 1954 Rocket 4.1 23:08:31 10° NNW 23:13:15 64° NE 23:13:15 64° NE
SPOT 5 3.1 23:19:19 62° NW 23:19:19 62° NW 23:23:09 10° NNW
ATLAS 2AS CENTAUR R/B 4.2 23:13:13 10° NW 23:19:41 30° WSW 23:22:42 22° SW
Lacrosse 5 3.8 23:16:57 10° NNW 23:20:49 21° NNE 23:21:57 20° NE
Cosmos 1869 Rocket 4.4 23:16:42 10° NNW 23:20:24 45° WNW 23:20:24 45° WNW
Helios 1B rocket 3.8 23:17:18 10° N 23:19:46 35° N 23:19:46 35° N
DMSP B5D2-2 4.4 23:26:15 10° N 23:31:27 61° WNW 23:31:42 60° W
Cosmos 2297 4.0 23:26:37 10° NNW 23:32:07 57° WSW 23:32:07 57° WSW
SPOT 1/Viking Rocket 4.2 23:40:49 51° W 23:40:49 51° W 23:45:31 10° NNW
Cosmos 2369 Rocket 3.3 23:35:45 10° N 23:40:15 34° NE 23:40:15 34° NE
H-2A R/B 3.8 23:48:27 22° WSW 23:48:58 22° W 23:52:52 10° NW
NOSS 3-4 (A) 4.1 23:43:40 10° NW 23:50:36 56° WSW 23:51:01 55° SW
NOSS 3-4 (C) 4.1 23:43:46 10° NW 23:50:41 56° WSW 23:51:06 56° SW
